QPF
0.00 0.00 0.00 0.00 0.00 0.00 0.00 0.00 0.00 0.00 0.00 0.00 0.00 0.00 0.00 0.00 0.00 0.05 0.00 0.00 0.00 0.00 0.00 0.00 0.00 0.00 0.00 0.00 0.01 0.01 0.01 0.01 0.01 0.02 0.03 0.04 0.05 0.02 0.00 0.00 0.00 0.00 0.00 0.00 0.00 0.00 0.00 0.00 0.00
0.00 0.00 0.00 0.00 0.00 0.00 0.00 0.00 0.00 0.00 0.00 0.00 0.00 0.00 0.00 0.00 0.00 0.00 0.00 0.00 0.00 0.00 0.00 0.00 0.00 0.00 0.00 0.00 0.00 0.00 0.00 0.00 0.00 0.00 0.00 0.02 0.03 0.00 0.00 0.00 0.00 0.00 0.00 0.00 0.00 0.00 0.00 0.00 0.00
0.00 0.00 0.00 0.00 0.00 0.00 0.00 0.00 0.00 0.00 0.00 0.00 0.00 0.00 0.00 0.00 0.00 0.00 0.00 0.00 0.00 0.00 0.00 0.00 0.00 0.00 0.00 0.00 0.00 0.00 0.00 0.00 0.00 0.00 0.00 0.00 0.00 0.00 0.00 0.00 0.00 0.00 0.00 0.01 0.00 0.01 0.00 0.01 0.00
0.00 0.00 0.00 0.00 0.00 0.00 0.00 0.00 0.00 0.00 0.00 0.00 0.00 0.00 0.00 0.00 0.00 0.00 0.00 0.00 0.00 0.00 0.00 0.00 0.00 0.00 0.00 0.00 0.00 0.00 0.00 0.00 0.00 0.00 0.00 0.00 0.00 0.00 0.00 0.00 0.00 0.00 0.00 0.00 0.00 0.00 0.00 0.00 0.00
0.00 0.00 0.00 0.00 0.00 0.00 0.00 0.00 0.00 0.00 0.00 0.00 0.00 0.00 0.00 0.00 0.00 0.00 0.00 0.00 0.00 0.00 0.00 0.00 0.00 0.00 0.00 0.00 0.00 0.00 0.00 0.00 0.00 0.00 0.00 0.00 0.00 0.00 0.00 0.00 0.00 0.00 0.00 0.00 0.00 0.00 0.00 0.00 0.00
0.00 0.00 0.00 0.00 0.00 0.00 0.00 0.00 0.00 0.00 0.00 0.00 0.00 0.00 0.00 0.00 0.00 0.00 0.00 0.00 0.00 0.00 0.00 0.00 0.00 0.00 0.00 0.00 0.00 0.00 0.00 0.00 0.00 0.00 0.00 0.00 0.00 0.00 0.00 0.00 0.00 0.00 0.00 0.00 0.00 0.00 0.00 0.00 0.00
0.00 0.00 0.00 0.00 0.00 0.00 0.00 0.00 0.00 0.00 0.00 0.00 0.00 0.00 0.00 0.00 0.00 0.00 0.00 0.00 0.00 0.00 0.00 0.00 0.00 0.00 0.00 0.00 0.00 0.00 0.00 0.00 0.00 0.00 0.00 0.00 0.00 0.00 0.00 0.00 0.00 0.00 0.00 0.00 0.00 0.00 0.00 0.00 0.00
0.00 0.00 0.00 0.00 0.00 0.00 0.00 0.00 0.00 0.00 0.00 0.00 0.00 0.00 0.00 0.00 0.00 0.00 0.00 0.00 0.00 0.00 0.00 0.00 0.00 0.00 0.00 0.00 0.00 0.00 0.00 0.00 0.00 0.00 0.00 0.00 0.00 0.00 0.00 0.00 0.00 0.00 0.00 0.00 0.00 0.00 0.00 0.00 0.00
0.00 0.00 0.00 0.00 0.00 0.00 0.00 0.00 0.00 0.00 0.00 0.00 0.00 0.00 0.00 0.00 0.00 0.00 0.00 0.00 0.00 0.00 0.00 0.00 0.00 0.00 0.00 0.00 0.00 0.00 0.00 0.00 0.00 0.00 0.00 0.00 0.00 0.00 0.00 0.00 0.00 0.00 0.00 0.00 0.00 0.00 0.00 0.00 0.00
0.00 0.00 0.00 0.00 0.00 0.00 0.00 0.00 0.00 0.00 0.00 0.00 0.00 0.00 0.00 0.00 0.00 0.00 0.00 0.00 0.00 0.00 0.00 0.00 0.00 0.00 0.00 0.00 0.00 0.00 0.00 0.00 0.00 0.00 0.00 0.00 0.00 0.00 0.00 0.00 0.00 0.00 0.00 0.00 0.00 0.00 0.00 0.00 0.00
0.00 0.00 0.00 0.00 0.00 0.00 0.00 0.00 0.00 0.00 0.00 0.00 0.00 0.00 0.00 0.00 0.00 0.00 0.00 0.00 0.00 0.00 0.00 0.00 0.00 0.00 0.00 0.00 0.00 0.00 0.00 0.00 0.00 0.00 0.00 0.00 0.00 0.00 0.00 0.00 0.00 0.00 0.00 0.00 0.00 0.00 0.00 0.00 0.00
0.00 0.00 0.00 0.00 0.00 0.00 0.00 0.00 0.00 0.00 0.00 0.00 0.00 0.00 0.00 0.00 0.00 0.00 0.00 0.00 0.00 0.00 0.00 0.00 0.00 0.00 0.00 0.00 0.00 0.00 0.00 0.00 0.00 0.00 0.00 0.00 0.00 0.00 0.00 0.00 0.00 0.00 0.00 0.00 0.00 0.00 0.00 0.00 0.00
0.00 0.00 0.00 0.00 0.00 0.00 0.00 0.00 0.00 0.00 0.00 0.00 0.00 0.00 0.00 0.00 0.00 0.00 0.00 0.00 0.00 0.00 0.00 0.00 0.00 0.00 0.00 0.00 0.00 0.00 0.00 0.00 0.00 0.00 0.00 0.00 0.00 0.00 0.00 0.00 0.00 0.00 0.00 0.00 0.00 0.00 0.00 0.00 0.00
0.00 0.00 0.00 0.00 0.00 0.00 0.00 0.00 0.00 0.00 0.00 0.00 0.00 0.00 0.00 0.00 0.00 0.00 0.00 0.00 0.00 0.00 0.00 0.00 0.00 0.00 0.00 0.00 0.00 0.00 0.00 0.00 0.00 0.00 0.00 0.00 0.00 0.00 0.00 0.00 0.00 0.00 0.00 0.00 0.00 0.00 0.00 0.00 0.00
0.00 0.00 0.00 0.00 0.00 0.00 0.00 0.00 0.00 0.00 0.00 0.00 0.00 0.00 0.00 0.00 0.00 0.00 0.00 0.00 0.00 0.00 0.00 0.00 0.00 0.00 0.00 0.00 0.00 0.00 0.00 0.00 0.00 0.00 0.00 0.00 0.00 0.00 0.00 0.00 0.00 0.00 0.00 0.00 0.00 0.00 0.00 0.00 0.00
0.00 0.00 0.00 0.00 0.00 0.00 0.00 0.00 0.00 0.00 0.00 0.00 0.00 0.00 0.00 0.00 0.00 0.00 0.00 0.00 0.00 0.00 0.00 0.00 0.00 0.00 0.00 0.00 0.00 0.00 0.00 0.00 0.00 0.00 0.00 0.00 0.00 0.00 0.00 0.00 0.00 0.00 0.00 0.00 0.00 0.00 0.00 0.00 0.00
0.00 0.00 0.00 0.00 0.00 0.00 0.00 0.00 0.00 0.00 0.00 0.00 0.00 0.00 0.00 0.00 0.00 0.00 0.00 0.00 0.00 0.00 0.00 0.00 0.00 0.00 0.00 0.00 0.00 0.00 0.00 0.00 0.00 0.00 0.00 0.00 0.00 0.00 0.00 0.00 0.00 0.00 0.00 0.00 0.00 0.00 0.00 0.00 0.00
0.00 0.00 0.00 0.00 0.00 0.00 0.00 0.00 0.00 0.00 0.00 0.00 0.00 0.00 0.00 0.00 0.00 0.00 0.00 0.00 0.00 0.00 0.00 0.00 0.00 0.00 0.00 0.00 0.00 0.00 0.00 0.00 0.00 0.00 0.00 0.00 0.00 0.00 0.00 0.00 0.00 0.00 0.00 0.00 0.00 0.00 0.00 0.00 0.00
0.00 0.00 0.00 0.00 0.00 0.00 0.00 0.00 0.00 0.00 0.00 0.00 0.00 0.00 0.00 0.00 0.00 0.00 0.00 0.00 0.00 0.00 0.00 0.00 0.00 0.00 0.00 0.00 0.00 0.00 0.00 0.00 0.00 0.00 0.00 0.00 0.00 0.00 0.00 0.00 0.00 0.00 0.00 0.00 0.00 0.00 0.00 0.00 0.00
0.00 0.00 0.00 0.00 0.00 0.00 0.00 0.00 0.00 0.00 0.00 0.00 0.00 0.00 0.00 0.00 0.00 0.00 0.00 0.00 0.00 0.00 0.00 0.00 0.00 0.00 0.00 0.00 0.00 0.00 0.00 0.00 0.00 0.00 0.00 0.00 0.00 0.00 0.00 0.00 0.00 0.00 0.00 0.00 0.00 0.00 0.00 0.00 0.00
0.00 0.00 0.00 0.00 0.00 0.00 0.00 0.00 0.00 0.00 0.00 0.00 0.00 0.00 0.00 0.00 0.00 0.00 0.00 0.00 0.00 0.00 0.00 0.00 0.00 0.00 0.00 0.00 0.00 0.00 0.00 0.00 0.00 0.00 0.00 0.00 0.00 0.00 0.00 0.00 0.00 0.00 0.00 0.00 0.00 0.00 0.00 0.00 0.00
0.00 0.00 0.00 0.00 0.00 0.00 0.00 0.00 0.00 0.00 0.00 0.00 0.00 0.00 0.00 0.00 0.00 0.00 0.00 0.00 0.00 0.00 0.00 0.00 0.00 0.00 0.00 0.00 0.00 0.00 0.00 0.00 0.00 0.00 0.00 0.00 0.00 0.00 0.00 0.00 0.00 0.00 0.00 0.00 0.00 0.00 0.00 0.00 0.00
0.00 0.00 0.00 0.00 0.00 0.00 0.00 0.00 0.00 0.00 0.00 0.00 0.00 0.00 0.00 0.00 0.00 0.00 0.00 0.00 0.00 0.00 0.00 0.00 0.00 0.00 0.00 0.00 0.00 0.00 0.00 0.00 0.00 0.00 0.00 0.00 0.00 0.00 0.00 0.00 0.00 0.00 0.00 0.00 0.00 0.00 0.00 0.00 0.00
0.00 0.00 0.00 0.00 0.00 0.00 0.00 0.00 0.00 0.00 0.00 0.00 0.00 0.00 0.00 0.00 0.00 0.00 0.00 0.00 0.00 0.00 0.00 0.00 0.00 0.00 0.00 0.00 0.00 0.00 0.00 0.00 0.00 0.00 0.00 0.00 0.00 0.00 0.00 0.00 0.00 0.00 0.00 0.00 0.00 0.00 0.00 0.00 0.00
0.00 0.00 0.00 0.00 0.00 0.00 0.00 0.00 0.00 0.00 0.00 0.00 0.00 0.00 0.00 0.00 0.00 0.00 0.00 0.00 0.00 0.00 0.00 0.00 0.00 0.00 0.00 0.00 0.00 0.00 0.00 0.00 0.00 0.00 0.00 0.00 0.00 0.00 0.00 0.00 0.00 0.00 0.00 0.00 0.00 0.00 0.00 0.00 0.00
0.00 0.00 0.00 0.00 0.00 0.00 0.00 0.00 0.00 0.00 0.00 0.00 0.00 0.00 0.00 0.00 0.00 0.00 0.00 0.00 0.00 0.00 0.00 0.00 0.00 0.00 0.00 0.00 0.00 0.00 0.00 0.00 0.00 0.00 0.00 0.00 0.00 0.00 0.00 0.00 0.00 0.00 0.00 0.00 0.00 0.00 0.00 0.00 0.00
0.00 0.00 0.00 0.00 0.00 0.00 0.00 0.00 0.00 0.00 0.00 0.00 0.00 0.00 0.00 0.00 0.00 0.00 0.00 0.00 0.00 0.00 0.00 0.00 0.00 0.00 0.00 0.00 0.00 0.00 0.00 0.00 0.00 0.00 0.00 0.00 0.00 0.00 0.00 0.00 0.00 0.00 0.00 0.00 0.00 0.00 0.01 0.01 0.01
0.00 0.00 0.00 0.00 0.00 0.00 0.00 0.00 0.00 0.00 0.00 0.00 0.00 0.00 0.00 0.00 0.00 0.00 0.00 0.00 0.00 0.00 0.00 0.00 0.00 0.00 0.00 0.00 0.00 0.00 0.00 0.00 0.00 0.00 0.00 0.00 0.00 0.00 0.00 0.00 0.00 0.00 0.00 0.00 0.00 0.01 0.01 0.02 0.03
0.00 0.00 0.00 0.00 0.00 0.00 0.00 0.00 0.00 0.00 0.00 0.00 0.00 0.00 0.00 0.00 0.00 0.00 0.00 0.00 0.00 0.00 0.00 0.00 0.00 0.00 0.00 0.00 0.00 0.00 0.00 0.00 0.00 0.00 0.00 0.00 0.00 0.00 0.00 0.00 0.00 0.00 0.00 0.00 0.00 0.01 0.01 0.00 0.00
0.00 0.00 0.00 0.00 0.00 0.00 0.00 0.00 0.00 0.00 0.00 0.00 0.00 0.00 0.00 0.00 0.00 0.00 0.00 0.00 0.00 0.00 0.00 0.00 0.00 0.00 0.00 0.00 0.00 0.00 0.00 0.00 0.00 0.00 0.00 0.00 0.00 0.00 0.00 0.00 0.00 0.01 0.00 0.00 0.01 0.01 0.00 0.00 0.00
MSLP
1011.04 1010.05 1008.73 1007.72 1005.92 1002.95 1002.70 1003.37 1004.28 1005.05 1005.44 1006.04 1006.51 1006.23 1006.73 1007.75 1008.15 1009.80 1011.24 1012.40 1012.90 1013.29 1014.61 1015.49 1016.11 1016.20 1016.39 1016.45 1016.57 1016.74 1016.76 1016.83 1016.70 1016.87 1016.88 1017.13 1017.33 1017.67 1017.70 1017.87 1017.75 1017.96 1018.03 1017.93 1017.64 1017.98 1017.69 1017.89 1017.85
1009.17 1008.62 1008.12 1005.75 1003.86 1002.03 1002.96 1004.39 1004.43 1005.34 1006.38 1006.90 1007.12 1007.02 1007.28 1008.84 1009.79 1010.86 1011.98 1012.76 1013.07 1013.39 1014.00 1015.66 1016.52 1016.63 1016.66 1016.77 1016.79 1016.92 1017.07 1017.16 1017.20 1017.24 1017.42 1017.50 1017.43 1017.74 1017.77 1018.12 1017.83 1018.01 1018.19 1018.02 1017.96 1018.05 1018.09 1018.15 1018.20
1010.01 1008.59 1006.66 1004.16 1002.35 1001.61 1003.39 1004.48 1005.45 1006.88 1007.12 1006.93 1007.48 1007.94 1008.50 1009.83 1010.39 1011.03 1012.54 1013.15 1013.51 1013.89 1014.79 1016.36 1016.65 1016.89 1016.95 1016.99 1017.13 1017.25 1017.15 1017.52 1017.67 1017.36 1017.58 1017.68 1017.80 1017.95 1018.21 1018.19 1018.13 1018.19 1018.25 1018.19 1018.19 1018.17 1018.38 1018.51 1018.54
1008.44 1007.54 1006.20 1003.48 1002.44 1003.41 1004.31 1005.22 1006.43 1006.95 1007.35 1007.53 1007.57 1008.76 1010.46 1010.66 1011.05 1012.24 1013.17 1013.50 1013.92 1014.43 1015.37 1016.59 1016.95 1017.05 1017.23 1017.31 1017.50 1017.62 1017.66 1017.77 1017.89 1017.81 1017.92 1017.96 1018.01 1017.98 1018.25 1018.33 1018.21 1018.45 1018.51 1018.36 1018.36 1018.43 1018.60 1018.67 1018.65
1007.98 1005.57 1003.93 1003.09 1004.28 1004.70 1005.33 1005.99 1006.54 1006.38 1007.04 1007.62 1008.25 1008.86 1010.60 1011.83 1012.18 1013.07 1013.45 1013.67 1014.19 1014.44 1015.62 1016.45 1017.23 1017.39 1017.55 1017.64 1017.93 1018.00 1018.20 1018.23 1018.33 1018.42 1018.29 1018.31 1018.38 1018.46 1018.47 1018.63 1018.69 1018.78 1018.74 1018.75 1018.78 1018.75 1018.89 1018.94 1018.88
1006.18 1004.38 1003.43 1004.32 1005.54 1005.87 1006.42 1006.89 1006.84 1006.72 1007.46 1008.46 1008.42 1009.35 1011.02 1012.23 1012.75 1013.45 1013.83 1014.00 1014.12 1014.68 1015.51 1016.59 1017.50 1017.79 1017.77 1018.05 1018.27 1018.37 1018.41 1018.48 1018.82 1018.76 1018.76 1018.78 1018.81 1018.77 1018.77 1018.89 1018.87 1018.93 1019.00 1018.95 1018.97 1019.02 1019.02 1018.97 1018.96
1005.49 1003.81 1003.69 1004.99 1006.16 1006.56 1007.28 1007.63 1007.12 1007.21 1007.95 1008.46 1009.01 1009.42 1011.55 1012.13 1012.90 1013.49 1013.92 1014.19 1014.26 1014.77 1015.13 1015.99 1016.72 1017.53 1017.88 1018.25 1018.41 1018.68 1018.56 1018.89 1018.90 1018.97 1019.03 1018.95 1018.96 1018.95 1019.03 1019.07 1019.05 1019.15 1019.16 1019.13 1019.22 1019.30 1019.22 1019.15 1019.16
1004.61 1003.83 1004.68 1005.59 1006.16 1007.08 1008.01 1007.91 1008.01 1008.18 1008.62 1009.45 1009.30 1009.19 1011.19 1012.15 1013.14 1013.31 1013.81 1014.42 1014.55 1014.86 1015.05 1015.18 1015.77 1016.34 1016.83 1017.66 1018.36 1018.56 1018.72 1018.88 1018.94 1019.07 1019.02 1018.93 1018.89 1018.93 1019.08 1019.17 1019.23 1019.35 1019.27 1019.34 1019.34 1019.29 1019.21 1019.27 1019.27
1005.74 1004.89 1005.04 1005.80 1006.34 1007.69 1008.40 1008.21 1008.73 1009.03 1009.27 1009.72 1010.00 1009.88 1010.61 1012.53 1013.24 1013.58 1013.99 1014.15 1014.37 1014.87 1015.27 1015.44 1015.49 1016.42 1016.74 1016.68 1017.91 1018.49 1018.67 1018.71 1018.73 1018.84 1018.95 1018.88 1018.11 1018.14 1018.44 1019.20 1019.52 1019.59 1019.72 1019.80 1019.68 1019.60 1019.55 1019.47 1019.21
1005.35 1004.58 1005.75 1006.76 1007.00 1007.61 1008.23 1007.97 1008.75 1008.89 1009.22 1009.48 1010.11 1010.87 1011.17 1012.46 1012.96 1013.25 1013.40 1013.58 1014.10 1014.54 1015.00 1015.69 1015.83 1016.37 1016.59 1016.62 1016.84 1017.05 1017.29 1017.20 1017.53 1017.71 1017.94 1017.54 1018.21 1018.26 1018.54 1018.82 1019.21 1019.35 1019.49 1019.49 1019.36 1019.38 1019.28 1019.03 1017.74
1005.63 1005.54 1007.21 1007.78 1007.86 1007.79 1008.24 1008.44 1008.64 1008.36 1008.50 1009.13 1009.34 1010.48 1011.24 1012.05 1012.45 1012.66 1012.75 1013.13 1013.63 1014.23 1014.67 1015.28 1016.15 1016.49 1016.61 1016.58 1016.42 1016.29 1016.61 1016.94 1017.21 1017.78 1017.90 1017.76 1018.03 1017.75 1017.87 1017.85 1018.22 1018.37 1019.12 1018.03 1018.83 1018.44 1018.16 1017.77 1017.89
1006.50 1007.22 1007.58 1008.18 1008.89 1008.51 1008.43 1008.43 1008.50 1008.12 1008.56 1009.25 1009.31 1010.19 1010.98 1011.60 1011.97 1012.33 1012.53 1012.72 1013.15 1013.90 1014.58 1015.29 1015.92 1016.46 1016.61 1016.36 1016.18 1016.35 1016.63 1016.78 1017.06 1017.11 1017.81 1017.76 1017.63 1017.71 1017.81 1017.71 1017.76 1017.85 1017.57 1017.72 1017.93 1017.71 1017.73 1018.02 1017.94
1007.22 1007.94 1008.39 1008.84 1009.27 1008.97 1009.09 1008.71 1008.38 1008.29 1008.87 1009.50 1009.71 1010.17 1010.65 1011.19 1011.57 1011.99 1012.20 1012.72 1013.10 1013.68 1014.37 1014.94 1015.73 1016.26 1016.54 1016.92 1016.68 1016.90 1017.14 1016.93 1017.23 1017.38 1017.52 1017.96 1017.89 1017.93 1018.08 1018.11 1018.12 1017.91 1017.78 1017.62 1017.51 1017.44 1017.34 1017.37 1017.45
1007.86 1008.31 1008.75 1009.14 1009.20 1009.43 1009.01 1008.93 1008.83 1008.58 1008.91 1009.33 1009.76 1009.84 1010.18 1010.58 1011.24 1011.62 1012.19 1012.72 1013.16 1013.64 1014.15 1014.85 1015.45 1016.05 1016.45 1016.60 1016.96 1017.14 1017.19 1017.10 1017.31 1017.39 1017.61 1018.10 1018.18 1018.14 1018.19 1018.12 1018.08 1017.81 1017.59 1017.48 1017.55 1017.36 1017.33 1017.23 1017.04
1008.27 1008.28 1008.88 1008.93 1008.99 1008.82 1008.94 1008.42 1008.42 1008.52 1009.03 1009.09 1009.33 1009.65 1009.94 1010.16 1010.85 1011.36 1012.21 1012.60 1013.04 1013.55 1014.00 1014.61 1015.33 1015.83 1016.46 1016.61 1016.82 1017.01 1016.90 1017.49 1017.32 1017.41 1017.84 1018.10 1018.18 1018.09 1018.20 1018.02 1017.97 1017.72 1017.61 1017.60 1017.46 1017.32 1017.11 1017.06 1016.86
1008.14 1007.87 1007.55 1008.56 1009.03 1009.09 1009.09 1006.82 1007.70 1008.71 1009.05 1008.86 1009.00 1009.43 1009.86 1009.97 1010.75 1011.21 1012.04 1012.50 1012.87 1013.17 1013.74 1014.46 1015.15 1015.75 1016.28 1016.30 1016.62 1016.85 1016.95 1017.34 1017.34 1017.46 1017.65 1018.00 1018.21 1018.29 1018.23 1017.99 1017.83 1017.70 1017.69 1017.46 1017.21 1017.11 1016.94 1016.73 1016.45
1007.63 1006.80 1007.54 1008.76 1009.21 1008.84 1008.43 1007.10 1007.84 1009.03 1009.03 1008.73 1008.69 1009.13 1009.64 1010.04 1010.69 1011.14 1012.15 1012.74 1013.14 1013.46 1013.92 1014.36 1014.99 1015.63 1016.03 1016.26 1016.60 1017.01 1017.33 1017.38 1017.00 1017.29 1017.42 1017.62 1018.10 1018.14 1018.18 1018.01 1017.76 1017.61 1017.34 1017.09 1016.87 1016.56 1016.42 1016.12 1015.93
1006.70 1007.43 1008.40 1008.13 1008.87 1008.88 1008.30 1007.95 1008.61 1009.08 1008.81 1008.82 1008.98 1009.27 1009.73 1010.27 1010.61 1011.49 1012.84 1013.38 1013.61 1014.16 1014.81 1015.08 1015.24 1015.60 1016.21 1016.56 1016.78 1016.82 1016.97 1016.91 1017.03 1017.16 1017.34 1017.93 1018.23 1018.20 1018.25 1018.02 1017.69 1017.41 1017.06 1016.68 1016.44 1016.28 1016.14 1015.89 1015.57
1008.46 1008.45 1008.22 1008.56 1009.43 1009.27 1008.64 1008.60 1009.38 1009.53 1009.30 1009.50 1009.72 1010.16 1010.69 1011.15 1012.18 1013.32 1014.42 1014.68 1014.79 1015.41 1015.24 1015.48 1015.67 1016.51 1016.80 1016.61 1016.77 1016.68 1016.74 1016.85 1017.11 1017.17 1017.72 1018.26 1018.19 1018.41 1018.32 1017.75 1017.40 1017.29 1016.90 1016.53 1016.37 1016.06 1015.77 1015.48 1015.21
1009.28 1009.09 1008.89 1009.37 1009.84 1009.84 1008.99 1009.17 1010.05 1010.44 1010.63 1010.59 1010.66 1011.14 1011.94 1012.85 1013.81 1014.68 1015.18 1015.53 1015.83 1016.15 1016.30 1016.54 1016.80 1017.33 1017.31 1017.09 1017.52 1017.70 1017.70 1017.42 1017.54 1017.53 1017.89 1017.95 1018.17 1018.31 1018.23 1017.89 1017.48 1017.00 1016.77 1016.43 1016.16 1015.91 1015.50 1015.09 1014.94
1009.80 1009.85 1010.03 1010.13 1009.93 1009.98 1009.53 1009.28 1010.32 1011.02 1011.34 1011.64 1012.01 1012.57 1013.03 1013.42 1014.16 1014.89 1015.58 1016.20 1016.69 1016.89 1017.01 1017.23 1017.58 1017.84 1018.13 1017.96 1017.63 1017.61 1017.39 1017.25 1017.34 1017.32 1017.50 1017.63 1018.04 1018.17 1017.83 1017.66 1017.35 1017.27 1017.01 1016.44 1016.07 1015.78 1015.42 1014.78 1014.33
1010.41 1011.21 1011.34 1010.88 1010.27 1008.65 1009.24 1008.07 1009.56 1010.70 1011.58 1012.26 1012.97 1013.60 1013.90 1014.28 1014.90 1015.47 1016.21 1016.81 1017.33 1017.64 1017.79 1017.83 1018.03 1018.16 1018.43 1018.57 1018.21 1018.33 1018.02 1017.78 1017.62 1017.77 1017.70 1017.64 1017.80 1017.70 1017.55 1017.29 1017.10 1017.05 1017.08 1016.71 1016.28 1015.83 1015.56 1015.25 1014.35
1011.34 1011.95 1011.63 1011.14 1010.30 1009.30 1008.79 1008.80 1008.96 1010.49 1011.43 1012.70 1013.84 1014.53 1014.93 1015.28 1015.63 1016.11 1016.62 1017.16 1017.75 1018.14 1018.29 1018.35 1018.18 1018.42 1018.66 1018.83 1018.86 1018.74 1018.52 1018.47 1018.21 1017.96 1017.86 1017.89 1017.54 1017.63 1017.44 1017.17 1017.00 1016.93 1017.03 1016.69 1016.51 1016.31 1016.00 1015.54 1015.14
1012.27 1011.87 1011.27 1011.09 1010.17 1009.54 1008.68 1009.10 1009.38 1009.99 1011.22 1013.18 1014.52 1015.31 1015.45 1015.80 1016.18 1016.47 1016.87 1017.13 1017.49 1018.13 1018.33 1018.36 1018.24 1018.14 1018.39 1018.73 1018.86 1018.90 1018.89 1018.77 1018.46 1018.24 1018.12 1017.84 1017.99 1017.72 1017.47 1017.31 1017.28 1017.21 1016.87 1016.59 1016.66 1016.87 1016.99 1017.17 1016.97
1011.71 1011.23 1010.63 1010.55 1010.21 1009.73 1009.98 1010.24 1010.22 1011.71 1012.76 1013.60 1014.85 1015.62 1015.87 1016.20 1016.49 1016.70 1017.01 1017.28 1017.71 1018.08 1018.27 1018.46 1018.27 1018.22 1018.26 1018.54 1018.67 1018.78 1018.86 1018.87 1018.59 1018.48 1018.37 1018.53 1018.21 1018.01 1017.73 1017.53 1017.40 1017.13 1017.12 1017.40 1017.57 1017.73 1017.82 1017.93 1018.11
1012.42 1012.36 1012.22 1011.87 1011.24 1010.54 1011.05 1010.53 1010.79 1012.64 1013.85 1014.79 1015.42 1015.90 1016.17 1016.43 1016.75 1016.88 1017.15 1017.45 1017.60 1017.87 1018.16 1018.46 1018.42 1018.30 1018.29 1018.38 1018.50 1018.66 1018.76 1018.76 1018.84 1018.81 1018.95 1018.91 1018.60 1018.26 1017.80 1017.54 1017.99 1018.24 1018.59 1018.56 1018.55 1018.54 1018.49 1018.60 1018.56
1012.70 1012.74 1013.78 1013.43 1013.70 1012.98 1011.33 1011.28 1012.42 1013.26 1014.09 1014.83 1015.21 1015.71 1016.18 1016.61 1016.88 1016.88 1017.20 1017.44 1017.90 1018.11 1018.29 1018.43 1018.59 1018.60 1018.62 1018.60 1018.55 1018.70 1018.92 1019.00 1018.88 1018.91 1019.09 1018.93 1018.73 1018.26 1018.13 1018.94 1019.34 1019.40 1019.27 1019.19 1019.19 1019.07 1018.71 1018.37 1018.08
1013.77 1014.27 1013.90 1013.87 1014.15 1013.07 1011.22 1011.14 1010.57 1012.93 1013.76 1014.55 1015.04 1015.53 1016.17 1016.64 1016.84 1017.09 1017.51 1017.83 1018.25 1018.41 1018.54 1018.67 1018.72 1018.72 1018.78 1018.81 1019.03 1018.90 1018.93 1018.81 1018.83 1018.99 1019.07 1019.04 1018.89 1019.24 1019.49 1019.67 1019.64 1019.60 1019.45 1019.24 1019.02 1018.98 1018.76 1018.65 1018.44
1013.89 1013.98 1014.68 1014.76 1015.01 1014.45 1013.44 1012.24 1012.53 1012.65 1013.14 1013.69 1014.68 1015.58 1016.12 1016.54 1016.91 1017.23 1017.60 1017.92 1018.16 1018.26 1018.39 1018.71 1018.95 1019.08 1019.16 1019.21 1019.22 1019.01 1018.93 1018.94 1018.85 1019.07 1019.10 1019.33 1019.32 1019.40 1019.46 1019.47 1019.51 1019.32 1018.98 1018.69 1018.50 1018.33 1018.04 1017.82 1017.60
1015.08 1014.92 1015.22 1015.47 1015.65 1015.53 1015.35 1013.86 1013.40 1013.51 1014.03 1014.76 1015.15 1015.73 1016.39 1016.77 1016.92 1017.37 1017.67 1017.90 1018.19 1018.36 1018.70 1019.12 1019.39 1019.45 1019.57 1019.61 1019.43 1019.27 1019.13 1018.99 1018.93 1019.15 1019.68 1019.79 1019.53 1019.28 1019.31 1019.37 1019.10 1018.64 1018.41 1018.01 1017.75 1017.58 1017.37 1017.15 1016.94
Thickness
5744 5754 5766 5761 5747 5773 5750 5750 5759 5745 5744 5756 5755 5752 5743 5741 5728 5704 5734 5727 5723 5720 5709 5700 5695 5691 5688 5686 5683 5680 5679 5677 5676 5672 5671 5668 5666 5662 5660 5658 5658 5655 5654 5654 5657 5653 5656 5654 5654
5755 5761 5759 5764 5750 5755 5744 5749 5744 5746 5745 5749 5747 5746 5739 5719 5731 5724 5719 5722 5718 5714 5708 5694 5687 5685 5683 5680 5679 5676 5675 5672 5669 5667 5664 5662 5661 5658 5655 5652 5654 5652 5650 5651 5650 5650 5649 5648 5648
5746 5757 5752 5758 5770 5762 5733 5748 5738 5735 5742 5743 5734 5741 5731 5714 5726 5723 5719 5714 5710 5706 5699 5687 5685 5681 5678 5677 5674 5672 5671 5668 5665 5665 5662 5659 5655 5654 5651 5650 5651 5650 5648 5647 5646 5646 5644 5643 5642
5748 5750 5755 5751 5751 5749 5741 5740 5736 5732 5736 5740 5738 5716 5717 5726 5719 5715 5711 5709 5705 5700 5692 5684 5680 5677 5674 5672 5670 5668 5667 5664 5662 5661 5658 5655 5654 5653 5649 5648 5649 5645 5644 5644 5643 5642 5640 5639 5638
5747 5756 5745 5748 5730 5740 5742 5740 5738 5734 5731 5729 5729 5711 5704 5710 5715 5710 5707 5705 5699 5697 5688 5680 5675 5672 5670 5668 5665 5663 5661 5660 5658 5655 5655 5653 5651 5648 5647 5645 5643 5642 5641 5640 5639 5638 5636 5635 5634
5736 5757 5741 5717 5712 5728 5731 5734 5733 5731 5727 5720 5720 5712 5701 5709 5705 5702 5702 5700 5699 5694 5686 5677 5671 5667 5666 5663 5661 5659 5659 5658 5652 5652 5650 5648 5647 5646 5644 5642 5641 5639 5637 5636 5635 5634 5633 5633 5632
5732 5749 5738 5719 5708 5712 5716 5729 5725 5725 5719 5715 5723 5705 5700 5703 5703 5701 5699 5698 5697 5691 5688 5680 5674 5669 5666 5662 5660 5658 5658 5652 5652 5650 5647 5647 5645 5644 5641 5640 5639 5636 5634 5634 5631 5629 5629 5628 5627
5749 5753 5724 5718 5708 5700 5715 5721 5725 5718 5710 5721 5725 5706 5693 5704 5703 5704 5700 5695 5694 5691 5687 5686 5682 5677 5672 5665 5660 5657 5654 5652 5650 5647 5646 5646 5644 5642 5639 5637 5634 5632 5631 5628 5627 5626 5626 5624 5622
5748 5724 5713 5713 5711 5703 5716 5712 5720 5724 5712 5713 5715 5716 5717 5707 5704 5698 5694 5694 5693 5690 5686 5685 5684 5675 5672 5671 5661 5657 5654 5652 5650 5647 5644 5643 5645 5643 5640 5633 5629 5626 5623 5620 5619 5618 5617 5616 5617
5732 5732 5713 5721 5722 5714 5716 5720 5713 5712 5708 5708 5708 5712 5716 5706 5701 5696 5695 5693 5691 5689 5689 5685 5681 5675 5672 5671 5668 5664 5660 5659 5654 5650 5646 5647 5640 5639 5634 5631 5627 5623 5619 5617 5617 5615 5614 5614 5620
5729 5716 5714 5713 5722 5725 5716 5714 5719 5715 5707 5712 5710 5709 5711 5706 5703 5701 5701 5699 5696 5694 5691 5686 5676 5672 5670 5669 5667 5666 5661 5656 5652 5646 5643 5642 5637 5638 5634 5632 5627 5623 5617 5620 5615 5614 5613 5614 5612
5707 5715 5718 5715 5714 5716 5712 5720 5712 5721 5716 5722 5724 5718 5714 5708 5705 5703 5701 5702 5698 5693 5688 5683 5676 5670 5668 5667 5665 5661 5657 5654 5650 5647 5640 5638 5636 5633 5629 5627 5624 5621 5620 5617 5612 5611 5610 5606 5604
5709 5710 5714 5715 5711 5715 5714 5712 5715 5716 5723 5722 5722 5718 5713 5710 5709 5707 5708 5703 5699 5690 5686 5683 5675 5669 5664 5658 5657 5654 5649 5648 5643 5639 5636 5630 5628 5625 5620 5617 5615 5614 5611 5609 5608 5606 5604 5602 5600
5715 5711 5710 5712 5711 5711 5707 5712 5713 5718 5724 5719 5716 5716 5717 5713 5710 5707 5702 5696 5693 5690 5686 5681 5675 5667 5662 5658 5652 5647 5644 5642 5637 5633 5629 5622 5618 5616 5612 5610 5607 5606 5605 5602 5599 5598 5596 5594 5593
5716 5705 5708 5711 5713 5712 5717 5707 5707 5720 5719 5716 5716 5717 5717 5715 5712 5705 5699 5694 5693 5689 5686 5679 5672 5665 5658 5654 5649 5643 5641 5634 5631 5626 5620 5615 5611 5608 5604 5602 5599 5597 5595 5592 5591 5589 5588 5587 5585
5707 5715 5703 5712 5712 5713 5711 5712 5718 5720 5714 5714 5718 5715 5713 5714 5709 5706 5700 5696 5694 5690 5683 5677 5670 5663 5656 5652 5645 5639 5635 5628 5624 5619 5613 5608 5602 5598 5595 5592 5590 5588 5584 5583 5582 5580 5579 5578 5579
5711 5710 5705 5698 5711 5710 5711 5714 5717 5715 5712 5713 5719 5716 5712 5710 5706 5704 5697 5692 5688 5684 5679 5673 5666 5657 5652 5645 5637 5631 5624 5619 5617 5611 5605 5601 5593 5589 5584 5582 5580 5577 5575 5574 5572 5572 5571 5569 5569
5710 5703 5696 5699 5704 5706 5707 5707 5709 5711 5714 5714 5714 5713 5708 5703 5702 5700 5688 5685 5681 5675 5667 5661 5657 5651 5642 5634 5629 5624 5619 5614 5609 5602 5596 5589 5581 5578 5573 5570 5569 5567 5566 5566 5564 5562 5561 5559 5558
5704 5699 5698 5704 5702 5696 5700 5700 5697 5704 5708 5704 5703 5700 5696 5693 5689 5680 5670 5668 5665 5659 5656 5651 5645 5636 5629 5626 5620 5616 5610 5606 5600 5594 5585 5577 5573 5566 5562 5562 5561 5558 5557 5556 5554 5554 5552 5551 5549
5696 5693 5694 5697 5697 5691 5698 5691 5691 5691 5690 5694 5693 5689 5682 5675 5668 5663 5659 5656 5650 5645 5641 5636 5630 5623 5619 5616 5607 5601 5595 5593 5587 5581 5575 5569 5563 5557 5552 5549 5547 5547 5546 5545 5543 5540 5538 5539 5537
5691 5685 5682 5680 5692 5693 5690 5682 5678 5682 5684 5683 5681 5677 5673 5668 5661 5656 5650 5643 5638 5633 5629 5624 5618 5612 5605 5601 5599 5594 5591 5586 5579 5574 5568 5561 5552 5545 5543 5539 5537 5532 5528 5528 5527 5523 5521 5521 5527
5678 5682 5675 5676 5676 5681 5696 5683 5677 5676 5670 5669 5666 5662 5660 5658 5653 5647 5639 5632 5625 5620 5617 5612 5606 5600 5594 5588 5585 5578 5574 5568 5566 5559 5555 5550 5542 5537 5531 5526 5521 5516 5510 5508 5506 5504 5501 5497 5504
5674 5675 5673 5674 5676 5685 5688 5681 5677 5676 5662 5657 5653 5649 5647 5645 5641 5635 5629 5622 5616 5609 5604 5600 5596 5590 5584 5577 5571 5565 5559 5554 5550 5546 5540 5533 5530 5521 5516 5511 5507 5501 5494 5491 5485 5481 5479 5478 5474
5674 5671 5676 5675 5678 5658 5686 5679 5668 5669 5665 5650 5644 5638 5638 5635 5631 5627 5622 5616 5610 5602 5595 5590 5586 5581 5576 5567 5559 5552 5545 5539 5534 5528 5522 5518 5510 5505 5499 5493 5485 5478 5474 5471 5465 5458 5449 5443 5437
5675 5669 5656 5651 5652 5652 5673 5662 5663 5657 5654 5647 5635 5630 5629 5625 5620 5615 5609 5604 5597 5590 5584 5579 5576 5570 5564 5556 5548 5540 5532 5524 5519 5513 5507 5498 5492 5486 5479 5474 5467 5461 5453 5444 5435 5426 5418 5411 5402
5658 5655 5638 5623 5639 5656 5659 5651 5654 5653 5644 5635 5629 5623 5620 5615 5611 5605 5600 5594 5588 5583 5576 5569 5563 5557 5552 5545 5537 5529 5521 5514 5505 5497 5487 5479 5474 5469 5462 5455 5443 5433 5421 5411 5402 5392 5385 5376 5367
5654 5645 5647 5633 5625 5620 5655 5653 5645 5639 5630 5626 5622 5618 5612 5605 5600 5596 5591 5586 5577 5571 5565 5560 5552 5546 5539 5532 5526 5517 5509 5500 5493 5484 5472 5463 5454 5448 5438 5423 5411 5400 5389 5379 5368 5358 5351 5345 5344
5647 5647 5631 5634 5596 5610 5656 5651 5656 5622 5621 5620 5615 5611 5602 5597 5592 5587 5580 5572 5566 5561 5554 5546 5539 5533 5526 5518 5508 5501 5491 5483 5474 5462 5451 5440 5433 5419 5405 5393 5382 5371 5360 5349 5341 5331 5326 5320 5315
5642 5635 5629 5629 5618 5602 5604 5631 5638 5630 5626 5619 5609 5602 5594 5587 5581 5575 5570 5565 5558 5552 5545 5535 5525 5516 5507 5498 5488 5481 5472 5461 5452 5440 5430 5416 5404 5395 5382 5368 5356 5345 5338 5330 5324 5318 5315 5312 5309
5634 5628 5624 5603 5602 5602 5590 5602 5627 5621 5612 5603 5597 5590 5583 5578 5575 5566 5560 5552 5543 5537 5528 5518 5507 5498 5488 5477 5469 5461 5452 5442 5432 5419 5403 5390 5380 5371 5358 5345 5335 5330 5323 5318 5314 5311 5307 5304 5302